TA3MHA Weather Reports


time (UTC)temp
C
wind
direction
speed
KPH
gust
KPH
rain 1hr
cm
rain 24hr
cm
rain mn
cm
humidity
%
barometer
mb
20260510071000 21 354 3.2 3.2 0.00 0.00 0.00 43
20260510070500 21 233 1.6 3.2 0.00 0.00 0.00 45
20260510070000 21 139 3.2 6.4 0.00 0.00 0.00 45
20260510065500 21 180 1.6 3.2 0.00 0.00 0.00 45
20260510065000 21 177 3.2 4.8 0.00 0.00 0.00 46
20260510064500 21 182 0.0 3.2 0.00 0.00 0.00 48
20260510064000 22 38 1.6 1.6 0.00 0.00 0.00 44
20260510063000 22 158 3.2 4.8 0.00 0.00 0.00 45
20260510062500 20 185 1.6 3.2 0.00 0.00 0.00 47
20260510062000 19 170 3.2 3.2 0.00 0.00 0.00 51
20260510061500 18 125 1.6 1.6 0.00 0.00 0.00 52
20260510060000 17 9 3.2 4.8 0.00 0.00 0.00 54
20260510055500 17 337 6.4 8.0 0.00 0.00 0.00 58
20260510055000 17 347 1.6 6.4 0.00 0.00 0.00 58
20260510054500 17 33 3.2 4.8 0.00 0.00 0.00 56
20260510054001 17 19 3.2 3.2 0.00 0.00 0.00 56
20260510053500 17 335 0.0 3.2 0.00 0.00 0.00 56
20260510053000 17 13 3.2 4.8 0.00 0.00 0.00 56
20260510052000 18 297 0.0 0.0 0.00 0.00 0.00 52
20260510051500 17 140 1.6 3.2 0.00 0.00 0.00 54
20260510051000 17 135 4.8 4.8 0.00 0.00 0.00 52
20260510050500 17 124 6.4 8.0 0.00 0.00 0.00 51
20260510045500 16 135 6.4 8.0 0.00 0.00 0.00 56
20260510045000 16 122 3.2 4.8 0.00 0.00 0.00 58
20260510044500 15 10 3.2 4.8 0.00 0.00 0.00 62
20260510043500 15 11 3.2 4.8 0.00 0.00 0.00 59
20260510043000 15 17 6.4 6.4 0.00 0.00 0.00 59
20260510042000 15 57 3.2 4.8 0.00 0.00 0.00 61
20260510041500 14 235 3.2 3.2 0.00 0.00 0.00 63
20260510041000 13 133 0.0 1.6 0.00 0.00 0.00 64
20260510040500 13 180 0.0 0.0 0.00 0.00 0.00 63
20260510035500 12 189 0.0 3.2 0.00 0.00 0.00 67
20260510035000 12 254 1.6 3.2 0.00 0.00 0.00 67
20260510034500 12 191 1.6 3.2 0.00 0.00 0.00 67
20260510034000 12 182 1.6 3.2 0.00 0.00 0.00 66
20260510033500 12 259 4.8 4.8 0.00 0.00 0.00 67
20260510033000 12 289 0.0 3.2 0.00 0.00 0.00 67
20260510032500 12 222 0.0 3.2 0.00 0.00 0.00 69
20260510031500 12 213 1.6 1.6 0.00 0.00 0.00 70
20260510030500 12 286 3.2 3.2 0.00 0.00 0.00 69
20260510030001 12 196 1.6 3.2 0.00 0.00 0.00 68
20260510025500 12 131 0.0 3.2 0.00 0.00 0.00 70
20260510025000 12 148 1.6 3.2 0.00 0.00 0.00 70
20260510024001 12 273 3.2 3.2 0.00 0.00 0.00 67
20260510023500 12 327 3.2 3.2 0.00 0.00 0.00 66
20260510023000 12 0 3.2 3.2 0.00 0.00 0.00 67
20260510022500 12 354 1.6 3.2 0.00 0.00 0.00 67
20260510022000 12 154 1.6 3.2 0.00 0.00 0.00 68
20260510021000 12 24 1.6 1.6 0.00 0.00 0.00 68
20260510020500 12 126 0.0 0.0 0.00 0.00 0.00 69
20260510020000 12 230 4.8 4.8 0.00 0.00 0.00 70
20260510015500 12 255 4.8 4.8 0.00 0.00 0.00 70
20260510014000 13 182 4.8 4.8 0.00 0.00 0.00 64
20260510013500 13 113 0.0 3.2 0.00 0.00 0.00 63
20260510013000 13 85 3.2 3.2 0.00 0.00 0.00 65
20260510012500 13 100 0.0 1.6 0.00 0.00 0.00 65
20260510012000 13 353 0.0 1.6 0.00 0.00 0.00 66
20260510011500 13 50 0.0 1.6 0.00 0.00 0.00 66
20260510011000 12 101 0.0 1.6 0.00 0.00 0.00 66
20260510010500 13 122 3.2 3.2 0.00 0.00 0.00 66
20260510010000 13 177 6.4 6.4 0.00 0.00 0.00 65
20260510005500 13 200 3.2 3.2 0.00 0.00 0.00 64
20260510005000 13 334 0.0 0.0 0.00 0.00 0.00 64
20260510004500 13 297 0.0 0.0 0.00 0.00 0.00 64
20260510004000 13 157 1.6 1.6 0.00 0.00 0.00 62
20260510003500 14 248 4.8 4.8 0.00 0.00 0.00 58
20260510003000 13 178 3.2 4.8 0.00 0.00 0.00 60
20260510002500 13 164 3.2 3.2 0.00 0.00 0.00 61
20260510002000 13 180 6.4 6.4 0.00 0.00 0.00 61
20260510001500 13 129 0.0 0.0 0.00 0.00 0.00 61
20260510001000 13 69 6.4 6.4 0.00 0.00 0.00 63
20260510000500 13 149 3.2 4.8 0.00 0.00 0.00 61
20260510000000 13 100 3.2 3.2 0.00 0.00 0.00 62
20260509235500 13 106 0.0 1.6 0.00 0.00 0.00 64
20260509235000 13 178 0.0 0.0 0.00 0.00 0.00 63
20260509234500 13 273 0.0 3.2 0.00 0.00 0.00 62
20260509234000 14 337 3.2 6.4 0.00 0.00 0.00 59
20260509233500 15 13 0.0 1.6 0.00 0.00 0.00 58
20260509232500 14 140 0.0 3.2 0.00 0.00 0.00 58
20260509232000 13 151 0.0 3.2 0.00 0.00 0.00 61
20260509231500 13 9 4.8 6.4 0.00 0.00 0.00 63
20260509230500 14 121 3.2 3.2 0.00 0.00 0.00 61
20260509230000 14 169 6.4 9.7 0.00 0.00 0.00 61
20260509225500 13 179 4.8 8.0 0.00 0.00 0.00 63
20260509225000 13 214 3.2 4.8 0.00 0.00 0.00 62
20260509224000 14 0 3.2 3.2 0.00 0.00 0.00 60
20260509223500 14 47 3.2 3.2 0.00 0.00 0.00 58
20260509223000 15 104 1.6 1.6 0.00 0.00 0.00 58
20260509222500 14 143 1.6 3.2 0.00 0.00 0.00 59
20260509222000 13 190 3.2 3.2 0.00 0.00 0.00 62
20260509221500 13 14 1.6 1.6 0.00 0.00 0.00 63
20260509221000 13 9 3.2 3.2 0.00 0.00 0.00 63
20260509220500 13 199 0.0 1.6 0.00 0.00 0.00 63
20260509220000 13 178 3.2 3.2 0.00 0.00 0.00 63
20260509215500 13 229 3.2 3.2 0.00 0.00 0.00 62
20260509215000 13 218 3.2 3.2 0.00 0.00 0.00 63
20260509214500 13 286 1.6 3.2 0.00 0.00 0.00 63
20260509214000 13 191 0.0 1.6 0.00 0.00 0.00 64
20260509213500 13 16 0.0 1.6 0.00 0.00 0.00 64
20260509213000 14 300 0.0 1.6 0.00 0.00 0.00 61
20260509212500 14 315 0.0 0.0 0.00 0.00 0.00 60
20260509211500 15 15 0.0 0.0 0.00 0.00 0.00 60
20260509211000 15 212 3.2 3.2 0.00 0.00 0.00 60
20260509210001 16 180 0.0 1.6 0.00 0.00 0.00 54
20260509205500 15 180 4.8 6.4 0.00 0.13 0.13 55
20260509205000 15 301 1.6 3.2 0.00 0.13 0.13 60
20260509204500 15 165 0.0 0.0 0.00 0.13 0.13 61
20260509204000 15 293 1.6 1.6 0.00 0.13 0.13 62
20260509203500 15 56 0.0 1.6 0.00 0.13 0.13 64
20260509202500 16 304 0.0 1.6 0.00 0.13 0.13 59
20260509202000 17 152 1.6 1.6 0.00 0.13 0.13 58
20260509201500 17 38 1.6 3.2 0.00 0.13 0.13 54
20260509200500 17 117 0.0 0.0 0.00 0.13 0.13 48
20260509200000 17 171 0.0 0.0 0.00 0.13 0.13 48
20260509195500 16 269 0.0 0.0 0.00 0.13 0.13 52
20260509195001 16 98 0.0 0.0 0.00 0.13 0.13 58
20260509193500 15 205 0.0 1.6 0.00 0.13 0.13 63
20260509193000 16 307 4.8 6.4 0.00 0.13 0.13 61
20260509192500 16 289 3.2 3.2 0.00 0.13 0.13 60
20260509191000 16 269 0.0 3.2 0.00 0.13 0.13 59
20260509190500 16 297 4.8 4.8 0.00 0.13 0.13 61
20260509190001 16 290 3.2 3.2 0.00 0.13 0.13 60
20260509185500 17 230 3.2 3.2 0.00 0.13 0.13 55
20260509185000 17 183 4.8 4.8 0.00 0.13 0.13 52
20260509184500 17 199 3.2 4.8 0.00 0.13 0.13 55
20260509184001 17 194 4.8 4.8 0.00 0.13 0.13 56
20260509183500 17 256 1.6 1.6 0.00 0.13 0.13 59
20260509183000 17 193 3.2 4.8 0.00 0.13 0.13 58
20260509182501 17 269 4.8 6.4 0.00 0.13 0.13 57
20260509182001 17 254 0.0 3.2 0.00 0.13 0.13 54
20260509181500 17 219 1.6 3.2 0.00 0.13 0.13 56
20260509181000 18 245 0.0 3.2 0.00 0.13 0.13 55
20260509180500 18 272 1.6 1.6 0.00 0.13 0.13 51
20260509180000 18 232 4.8 4.8 0.00 0.13 0.13 50
20260509175500 18 344 0.0 0.0 0.00 0.13 0.13 53
20260509175000 18 198 3.2 4.8 0.00 0.13 0.13 50
20260509174500 18 278 3.2 3.2 0.00 0.13 0.13 47
20260509174000 19 351 1.6 1.6 0.00 0.13 0.13 49
20260509173001 18 80 0.0 1.6 0.00 0.13 0.13 46
20260509172500 19 177 1.6 1.6 0.00 0.13 0.13 50
20260509172000 19 246 1.6 1.6 0.00 0.13 0.13 46
20260509171501 19 80 3.2 3.2 0.00 0.13 0.13 48
20260509171002 19 315 0.0 0.0 0.00 0.13 0.13 47
20260509170500 19 44 0.0 0.0 0.00 0.13 0.13 48
20260509170001 20 22 0.0 3.2 0.00 0.13 0.13 48
20260509165500 20 255 0.0 0.0 0.00 0.13 0.13 48
20260509165000 20 2 0.0 0.0 0.00 0.13 0.13 44
20260509164500 21 15 0.0 1.6 0.00 0.13 0.13 48
20260509164001 21 274 1.6 3.2 0.00 0.13 0.13 47
20260509163500 21 290 0.0 0.0 0.00 0.13 0.13 44
20260509163000 21 315 0.0 0.0 0.00 0.13 0.13 45
20260509162500 21 321 1.6 3.2 0.00 0.13 0.13 46
20260509162000 21 216 4.8 4.8 0.00 0.13 0.13 43
20260509161500 21 257 4.8 4.8 0.00 0.13 0.13 42
20260509161000 22 257 6.4 8.0 0.00 0.13 0.13 43
20260509160500 22 232 3.2 3.2 0.00 0.13 0.13 41
20260509155501 21 214 6.4 9.7 0.00 0.13 0.13 42
20260509155000 21 202 6.4 6.4 0.00 0.13 0.13 41
20260509154500 21 201 4.8 8.0 0.00 0.13 0.13 42
20260509154000 21 183 3.2 9.7 0.00 0.13 0.13 42
20260509153000 21 188 14.5 14.5 0.00 0.13 0.13 44
20260509152500 21 233 8.0 9.7 0.00 0.13 0.13 43
20260509152000 21 185 8.0 11.3 0.00 0.13 0.13 43
20260509151500 21 219 9.7 11.3 0.00 0.13 0.13 41
20260509151000 21 239 8.0 9.7 0.00 0.13 0.13 41
20260509150500 21 195 6.4 14.5 0.00 0.13 0.13 42
20260509150000 21 188 6.4 9.7 0.00 0.13 0.13 41
20260509145500 22 249 14.5 16.1 0.00 0.13 0.13 40
20260509145000 22 240 8.0 11.3 0.00 0.13 0.13 38
20260509144500 22 219 9.7 11.3 0.00 0.13 0.13 38
20260509144000 21 193 9.7 9.7 0.00 0.13 0.13 38
20260509143500 21 227 8.0 12.9 0.00 0.13 0.13 39
20260509143000 21 216 8.0 16.1 0.00 0.13 0.13 38
20260509142500 21 243 9.7 9.7 0.00 0.13 0.13 39
20260509142000 21 242 12.9 12.9 0.00 0.13 0.13 41
20260509141500 21 231 12.9 14.5 0.00 0.13 0.13 42
20260509141000 21 234 17.7 20.9 0.00 0.13 0.13 43
20260509140500 21 224 4.8 9.7 0.00 0.13 0.13 43
20260509140000 21 198 11.3 11.3 0.00 0.13 0.13 41
20260509135500 22 244 9.7 17.7 0.00 0.13 0.13 40
20260509135000 22 214 9.7 12.9 0.00 0.13 0.13 39
20260509134500 22 224 12.9 17.7 0.00 0.13 0.13 39
20260509134000 23 191 14.5 14.5 0.00 0.13 0.13 39
20260509133000 22 208 11.3 14.5 0.00 0.13 0.13 38
20260509132500 22 236 19.3 20.9 0.00 0.13 0.13 37
20260509132000 22 217 11.3 19.3 0.00 0.13 0.13 38
20260509131501 22 221 9.7 14.5 0.00 0.13 0.13 39
20260509131000 22 231 11.3 12.9 0.00 0.13 0.13 40
20260509130500 22 246 6.4 8.0 0.00 0.13 0.13 45
20260509130000 22 261 6.4 8.0 0.00 0.13 0.13 46
20260509125500 22 178 11.3 14.5 0.00 0.13 0.13 44
20260509125000 22 231 8.0 11.3 0.00 0.13 0.13 44
20260509124500 21 234 9.7 12.9 0.00 0.13 0.13 46
20260509124000 21 233 4.8 8.0 0.00 0.13 0.13 46
20260509123500 21 190 12.9 20.9 0.00 0.13 0.13 46
20260509123000 21 221 9.7 12.9 0.00 0.13 0.13 44
20260509122000 21 213 6.4 8.0 0.00 0.13 0.13 45
20260509121500 21 188 9.7 11.3 0.00 0.13 0.13 43
20260509121000 21 184 11.3 12.9 0.00 0.13 0.13 43
20260509120500 21 187 12.9 12.9 0.00 0.13 0.13 42
20260509120000 21 188 14.5 14.5 0.00 0.13 0.13 42
20260509115500 21 204 9.7 16.1 0.00 0.13 0.13 40
20260509115000 22 217 11.3 20.9 0.00 0.13 0.13 39
20260509114500 22 207 9.7 14.5 0.00 0.13 0.13 40
20260509114000 22 213 6.4 8.0 0.00 0.13 0.13 42
20260509113500 21 217 6.4 6.4 0.00 0.13 0.13 42
20260509112500 21 227 11.3 12.9 0.00 0.13 0.13 43
20260509112000 21 255 16.1 17.7 0.00 0.13 0.13 45
20260509111000 21 231 11.3 12.9 0.00 0.13 0.13 43
20260509110500 21 255 11.3 14.5 0.00 0.13 0.13 45
20260509110000 21 252 3.2 6.4 0.00 0.13 0.13 45
20260509105500 21 281 4.8 6.4 0.00 0.13 0.13 47
20260509104500 21 191 17.7 19.3 0.00 0.13 0.13 49
20260509104000 21 190 20.9 20.9 0.00 0.13 0.13 50
20260509103500 21 190 16.1 19.3 0.00 0.13 0.13 51
20260509103000 21 190 19.3 22.5 0.00 0.13 0.13 51
20260509102500 21 203 14.5 20.9 0.00 0.13 0.13 51
20260509102000 21 199 11.3 14.5 0.00 0.13 0.13 50
20260509101500 21 205 12.9 16.1 0.00 0.13 0.13 51
20260509101000 21 229 6.4 14.5 0.00 0.13 0.13 51
20260509100500 21 230 9.7 12.9 0.00 0.13 0.13 51
20260509100000 21 212 14.5 14.5 0.00 0.13 0.13 50
20260509095501 21 215 11.3 14.5 0.00 0.13 0.13 49
20260509095000 21 210 11.3 11.3 0.00 0.13 0.13 50
20260509094500 21 241 14.5 16.1 0.00 0.13 0.13 49
20260509094000 21 239 6.4 9.7 0.00 0.13 0.13 49
20260509093500 21 244 11.3 16.1 0.00 0.13 0.13 48
20260509093000 21 206 6.4 16.1 0.00 0.13 0.13 46
20260509092500 21 219 14.5 16.1 0.00 0.13 0.13 46
20260509092000 22 230 11.3 17.7 0.00 0.13 0.13 46
20260509091500 22 197 17.7 19.3 0.00 0.13 0.13 45
20260509091000 22 195 12.9 22.5 0.00 0.13 0.13 45
20260509090500 23 228 6.4 20.9 0.00 0.13 0.13 44
20260509085500 22 176 14.5 16.1 0.00 0.13 0.13 43
20260509085000 22 226 19.3 20.9 0.00 0.13 0.13 43
20260509084500 22 203 17.7 19.3 0.00 0.13 0.13 45
20260509084000 21 239 6.4 12.9 0.00 0.13 0.13 46
20260509083501 21 216 6.4 14.5 0.00 0.13 0.13 45
20260509083000 21 211 9.7 9.7 0.00 0.13 0.13 46
20260509082500 21 196 16.1 17.7 0.00 0.13 0.13 46
20260509082000 20 201 11.3 12.9 0.00 0.13 0.13 45
20260509081000 20 197 16.1 20.9 0.00 0.13 0.13 47
20260509080501 20 209 8.0 12.9 0.00 0.13 0.13 47
20260509075500 20 207 8.0 12.9 0.00 0.13 0.13 45
20260509075000 20 217 8.0 14.5 0.00 0.13 0.13 46
20260509074000 20 195 6.4 11.3 0.00 0.13 0.13 46
20260509073500 20 207 11.3 17.7 0.00 0.13 0.13 46
20260509073000 21 192 24.1 25.7 0.00 0.13 0.13 44
20260509072500 21 199 16.1 24.1 0.00 0.13 0.13 44
20260509072000 21 214 17.7 19.3 0.00 0.13 0.13 46
20260509071500 21 195 12.9 17.7 0.00 0.13 0.13 47